This demonstration page uses our WeatherBlox Daily Observations layout. Learn more.

Left ArrowRight Arrow

39.92423, -83.80882

Hourly Observations for August 27, 2021

Temp ( °F °C ) Dew Point ( °F °C ) Humidity (%) Winds ( mph kmh ) Pressure ( in mb ) Visibility ( mi km ) Precip ( " mm )
12:56 am 00:56 Clear 68 20 N/A N/A E 3 6 30.13 1020 9 14 0.00 0.00
1:56 am 01:56 Clear 66 19 N/A N/A Calm 30.12 1020 10 16 0.00 0.00
2:56 am 02:56 Clear 66 19 N/A N/A Calm 30.11 1020 7 11 0.00 0.00
3:30 am 03:30 Clear with Mist and Fog 66 19 N/A N/A WSW 3 6 30.11 1019 2 3 0.00 0.00
3:44 am 03:44 Clear with Mist and Fog 66 19 N/A N/A SSW 3 6 30.11 1019 3 5 0.00 0.00
3:56 am 03:56 Hazy 66 19 N/A N/A Calm 30.12 1020 5 8 0.00 0.00
4:56 am 04:56 Clear 66 19 N/A N/A Calm 30.11 1020 8 13 0.00 0.00
5:56 am 05:56 Hazy 64 18 N/A N/A ENE 3 6 30.11 1020 5 8 0.00 0.00
6:20 am 06:20 Clear with Mist and Fog 64 18 N/A N/A Calm 30.10 1019 2 3 0.00 0.00
6:33 am 06:33 Clear with Mist and Fog 64 18 N/A N/A Calm 30.10 1019 3 5 0.00 0.00
6:43 am 06:43 Clear with Mist and Fog 64 18 N/A N/A Calm 30.10 1019 2 3 0.00 0.00
6:56 am 06:56 Clear with Mist and Fog 64 18 N/A N/A SSE 5 7 30.11 1020 3 4 0.00 0.00
7:03 am 07:03 Hazy 64 18 N/A N/A Calm 30.10 1019 4 6 0.00 0.00
7:56 am 07:56 Sunny 66 19 N/A N/A Calm 30.13 1020 10 16 0.00 0.00
8:56 am 08:56 Sunny 72 22.2 72 22.2 100 100 Calm 30.14 1021 10 16 0.00 0.00
9:56 am 09:56 Sunny 77 25 75 23.9 94 94 SW 5 7 30.14 1021 10 16 0.00 0.00
10:56 am 10:56 Sunny 80 26.7 73 22.8 79 79 SW 6 9 30.15 1021 10 16 0.00 0.00
11:56 am 11:56 Sunny 83 28.3 75 23.9 77 77 SSW 5 7 30.15 1021 10 16 0.00 0.00
12:56 pm 12:56 Sunny 85 29.4 76 24.4 75 75 S 3 6 30.14 1021 10 16 0.00 0.00
1:56 pm 13:56 Sunny 87 30.6 76 24.4 70 70 S 5 7 30.12 1020 10 16 0.00 0.00
2:56 pm 14:56 Mostly Sunny 88 31.1 74 23.3 63 63 S 3 6 30.09 1019 10 16 0.00 0.00
3:56 pm 15:56 Sunny 88 31.1 76 24.4 68 68 S 5 7 30.07 1018 10 16 0.00 0.00
4:56 pm 16:56 Partly Cloudy 88 31.1 77 25 70 70 SSE 9 15 30.06 1018 10 16 0.00 0.00
5:56 pm 17:56 Sunny 85 29.4 77 25 77 77 SE 7 11 30.07 1018 10 16 0.00 0.00
6:56 pm 18:56 Sunny 84 28.9 77 25 80 80 SSE 3 6 30.09 1019 10 16 0.00 0.00
7:56 pm 19:56 Mostly Sunny 80 26.7 77 25 90 90 SW 12 19 30.11 1020 10 16 0.00 0.00
8:10 pm 20:10 Mostly Cloudy with Nearby Thunderstorms 79 26 73 23 84 84 SW 14 22 30.09 1019 10 16 0.00 0.00
8:28 pm 20:28 Partly Cloudy 75 24 73 23 94 94 SW 7 11 30.10 1019 10 16 0.00 0.00
8:56 pm 20:56 Clear 74 23.3 74 23.3 100 100 WSW 3 6 30.14 1021 10 16 0.00 0.00
9:56 pm 21:56 Clear 73 23 N/A N/A Calm 30.15 1021 10 16 0.00 0.00
10:56 pm 22:56 Clear 72 22 N/A N/A SW 3 6 30.14 1021 10 16 0.00 0.00
11:56 pm 23:56 Clear 72 22 N/A N/A Calm 30.14 1021 10 16 0.00 0.00

Powered by AerisWeather